パンスターズ彗星

P/2013 W1 ( PanSTARRS )

English version
Home page
Updated on June 11, 2016

---------------------------------------------------------------------

・ プロフィール

発見日 2013年11月24日
発見光度 20.7等
発見者 Pan-STARRS 1 telescope (Haleakala)

・ 写真集

・ 軌道要素

Epoch 2014 Mar. 4.0 TT = JDT 2456720.5
T 2014 Mar. 8.16932 TT                                  MPCW
q   1.4156352            (2000.0)            P               Q
n   0.15143971     Peri.    1.32323     -0.48745906     -0.87013587
a   3.4858567      Node   117.85499     +0.80034118     -0.47843864
e   0.5938917      Incl.    4.69956     +0.34905253     -0.11815261
P   6.51
From 92 observations 2013 Nov. 9-2014 Mar. 3, mean residual 0".5.

・ 光度変化

        m1 = 17.5 + 5 logΔ + 10.0 log r

---------------------------------------------------------------------

軌道要素はM.P.E.C. 2014-Y44に掲載されたものです。
光度グラフはComet for Windowsで作成したものです。

---------------------------------------------------------------------

Copyright(C) Seiichi Yoshida (comet@aerith.net). All rights reserved.